San Diego International Airport

Airport
ICAO code: 
KSAN
IATA Code: 
SAN
Summary
ICAO Region: 
NAM
Territory: 
Location: 
San Diego, California
Serving: 
San Diego County
Elevation: 
17 ft
Coordinates: 
Aerial View: 
32° 44' 0.255" N, 117° 11' 25.506" W
Airport RE: 
Engineered Materials Arresting System
Airport WX: 
Fog
Metar
Observation
KSAN 201051Z 16007KT 6SM -DZ BR FEW009 BKN015 OVC020 15/13 A2981 RMK AO2 SLP095 CIG 013V017 P0001 T01500133 $
Station
San Diego, San Diego International-Lindbergh Field
Date/Time
2022-05-20 10:51:00
Wind direction
160°
Wind speed
07 kts
Lowest cloud amount
few clouds
Temperature
15°C
Dew point
13.3°C
Humidity
89%
Weather condition
light

Description

International airport serving San Diego, California, USA.

Climatology

San Diego enjoys mild, sunny weather throughout the year. Since the San Diego area straddles areas of Mediterranean climate (Csa) to the north, and Semi-arid climate (BSh) to the south and east, the climate is often referred to as "Mediterranean" or "arid-mediterranean". Fog is common in May and June.

Runways

Designator Length Width Surface Rops
9/27 2865 61 PEM Yes/Yes
Airport map: 
Aerial View: 

SKYbrary Partners:

Safety knowledge contributed by: